Regional Weather Roundup
Issued by NWS

Home | Current Version | Previous Version | Text Only | Print | Product List | Glossary On
Versions: 1 2 3 4 5 6 7 8 9 10 11 12 13 14 15 16 17 18 19 20 21 22 23 24 25 26 27 28 29 30 31 32 33 34 35 36 37 38 39 40 41 42 43 44 45 46 47 48 49 50
000
ASUS43 KMKX 311211
RWRWI

WISCONSIN REGIONAL WEATHER ROUNDUP
NATIONAL WEATHER SERVICE MILWAUKEE/SULLIVAN WI
700 AM CDT TUE MAY 31 2016

NOTE: "FAIR" INDICATES FEW OR NO CLOUDS BELOW 12,000 FEET WITH NO
SIGNIFICANT WEATHER AND/OR OBSTRUCTIONS TO VISIBILITY.

WIZ001-002-006>008-014>016-023>028-311300-
NORTHWEST WISCONSIN

CITY           SKY/WX    TMP DP  RH WIND       PRES   REMARKS
SUPERIOR ARPT  CLOUDY    43  41  92 NE16G28   29.99R
6HR MIN TEMP:  43; 6HR MAX TEMP:  49;

ASHLAND        CLOUDY    50  45  83 NE12      29.98F
6HR MIN TEMP:  46; 6HR MAX TEMP:  53;

HAYWARD        CLOUDY    59  52  77 VRB3      29.93R
6HR MIN TEMP:  57; 6HR MAX TEMP:  63; 6HR PCP: TRACE;

SIREN          CLOUDY    57  52  84 NE6       29.90F
                                      6HR PCP:  0.01;

CUMBERLAND     CLOUDY    63  54  72 SE6       29.91S
RICE LAKE      CLOUDY    64  56  76 SE8       29.92F
6HR MIN TEMP:  64; 6HR MAX TEMP:  68;

CHETEK         CLOUDY    63  58  84 SE7       29.92S
6HR MIN TEMP:  62; 6HR MAX TEMP:  67;

LADYSMITH      CLOUDY    62  56  80 E10       29.96R
6HR MIN TEMP:  60; 6HR MAX TEMP:  65;

EAU CLAIRE     CLOUDY    64  57  78 SE6       29.91R
6HR MIN TEMP:  62; 6HR MAX TEMP:  68; 6HR PCP:  0.09;

MENOMONIE      CLOUDY    64  58  81 E3        29.91R
6HR MIN TEMP:  64; 6HR MAX TEMP:  70;

NEW RICHMOND   CLOUDY    65  54  67 S10       29.89S
6HR MIN TEMP:  64; 6HR MAX TEMP:  68;

OSCEOLA        CLOUDY    65  56  70 SE7       29.91S
6HR MIN TEMP:  65; 6HR MAX TEMP:  69;

$$

WIZ003>005-009-010-017-018-311300-
NORTH CENTRAL WISCONSIN

CITY           SKY/WX    TMP DP  RH WIND       PRES   REMARKS
MANITOWISH WTR NOT AVBL
ARBOR VITAE    CLOUDY    55  49  82 E8        30.00F
6HR MIN TEMP:  55; 6HR MAX TEMP:  62;

WOODRUFF       CLOUDY    55  49  82 E8        30.00F
6HR MIN TEMP:  55; 6HR MAX TEMP:  62;

RHINELANDER    LGT RAIN  51  46  83 E16       30.04F
6HR MIN TEMP:  51; 6HR MAX TEMP:  61; 6HR PCP: TRACE;

EAGLE RIVER      N/A     50  43  77 E8        30.05F
LAND O LAKES   CLOUDY    50  44  79 SE8       30.08F
6HR MIN TEMP:  48; 6HR MAX TEMP:  57;

PHILLIPS       CLOUDY    56  50  80 E6        29.98R
6HR MIN TEMP:  55; 6HR MAX TEMP:  58;

TOMAHAWK       CLOUDY    55  49  82 E5        30.02R
6HR MIN TEMP:  51; 6HR MAX TEMP:  58;

MEDFORD        PTSUNNY   58  54  87 E8        29.98S
6HR MIN TEMP:  57; 6HR MAX TEMP:  64;

MERRILL        PTSUNNY   55  50  85 SE12G18   30.02R
$$

WIZ029-030-035-036-043>047-311300-
CENTRAL WISCONSIN

CITY           SKY/WX    TMP DP  RH WIND       PRES   REMARKS
WAUSAU         CLOUDY    57  50  77 E12       30.00F
6HR MIN TEMP:  57; 6HR MAX TEMP:  62;

MOSINEE        SUNNY     55  54  94 E13G20    30.02F
MARSHFIELD     MOSUNNY   63  55  75 E13       29.98R
6HR MIN TEMP:  61; 6HR MAX TEMP:  66;

STEVENS POINT  MOSUNNY   56  52  84 E12       30.03R
6HR MIN TEMP:  55; 6HR MAX TEMP:  64;

WAUPACA        CLOUDY    59  56  91 E9        30.03S
6HR MIN TEMP:  58; 6HR MAX TEMP:  62;

WAUTOMA        PTSUNNY  N/A N/A N/A E7        30.02R
WISC RAPIDS    CLOUDY    61  54  77 E13       30.01R
6HR MIN TEMP:  61; 6HR MAX TEMP:  66; 6HR PCP: TRACE;

CAMP DOUGLAS   PTSUNNY   61  61 100 SE5       29.97S
                                      6HR PCP:  0.16;

$$

WIZ011>013-019>022-031-037>040-048>050-311300-
NORTHEAST WISCONSIN

CITY           SKY/WX    TMP DP  RH WIND       PRES   REMARKS
ANTIGO         CLOUDY    49  46  89 E9        30.06S
6HR MIN TEMP:  49; 6HR MAX TEMP:  59;

SHAWANO        LGT RAIN  55  49  79 E17       30.07F
6HR MIN TEMP:  55; 6HR MAX TEMP:  65;

OCONTO         CLOUDY    53  50  88 NE7       30.10S
6HR MIN TEMP:  51; 6HR MAX TEMP:  61;

STURGEON BAY   NOT AVBL
GREEN BAY      MOSUNNY   57  51  80 NE15      30.08R
6HR MIN TEMP:  57; 6HR MAX TEMP:  64;

MANITOWOC      CLOUDY    54  48  80 N7        30.08S
6HR MIN TEMP:  53; 6HR MAX TEMP:  64;

APPLETON       PTSUNNY   57  48  72 E17       30.03S
CLINTONVILLE   CLOUDY    54  46  76 E12G17    30.06R
OSHKOSH        RAIN      61  57  87 NE8       30.03R FOG
6HR MIN TEMP:  59; 6HR MAX TEMP:  67; 6HR PCP:  0.01;

$$

WIZ032>034-041-042-053>061-311300-
SOUTHWEST WISCONSIN

CITY           SKY/WX    TMP DP  RH WIND       PRES   REMARKS
LA CROSSE      PTSUNNY   65  59  81 SE5       29.91F
6HR MIN TEMP:  63; 6HR MAX TEMP:  68; 6HR PCP:  0.05;

SPARTA         CLOUDY    62  60  93 SE5       29.94F
6HR MIN TEMP:  59; 6HR MAX TEMP:  64; 6HR PCP:  0.05;

VIROQUA        PTSUNNY   62  59  90 E9        29.95F
6HR MIN TEMP:  60; 6HR MAX TEMP:  64; 6HR PCP:  0.04;

BOSCOBEL       NOT AVBL
PRAIRIE DU CHI MOSUNNY   62  61  96 CALM      29.93F
6HR MIN TEMP:  60; 6HR MAX TEMP:  62; 6HR PCP:  0.01;

PLATTEVILLE    SUNNY     65  60  85 E10       29.96S
6HR MIN TEMP:  61; 6HR MAX TEMP:  69; 6HR PCP:  0.36;

$$

WIZ056-057-062-063-064-067-068-311300-
SOUTH CENTRAL WISCONSIN

CITY           SKY/WX    TMP DP  RH WIND       PRES   REMARKS
REEDSBURG      SUNNY     66  57  72 CALM      29.97S
6HR MIN TEMP:  61; 6HR MAX TEMP:  67;

BARABOO/DELLS  SUNNY     68  56  64 E8        29.98S
6HR MIN TEMP:  63; 6HR MAX TEMP:  69;

LONE ROCK      MOSUNNY   67  60  78 E8        29.97S
6HR MIN TEMP:  60; 6HR MAX TEMP:  69; 6HR PCP:  0.07;

MINERAL POINT  MOSUNNY   64  57  77 E9        29.97S
MADISON        PTSUNNY   67  58  72 E6        29.98F
6HR MIN TEMP:  63; 6HR MAX TEMP:  68; 6HR PCP: TRACE;

MIDDLETON      MOSUNNY   68  59  74 E6        29.99F
6HR MIN TEMP:  64; 6HR MAX TEMP:  70; 6HR PCP:  0.01;

WATERTOWN      SUNNY     64  59  85 E3        30.01S
6HR MIN TEMP:  60; 6HR MAX TEMP:  64; 6HR PCP:  0.04;

MONROE         SUNNY     64  55  72 E6        30.00R
JANESVILLE     MOSUNNY   66  55  68 E7        30.00R
$$

WIZ051-052-058>065-066-070>072-311300-
SOUTHEAST WISCONSIN

CITY           SKY/WX    TMP DP  RH WIND       PRES   REMARKS
MILWAUKEE      CLOUDY    64  56  75 E3        30.03R
6HR MIN TEMP:  60; 6HR MAX TEMP:  67; 6HR PCP:  0.01;

WAUKESHA       MOSUNNY   59  55  88 CALM      30.03F
MILWAUKEE/TIMM CLOUDY    63  54  72 CALM      30.03S
RACINE         MOSUNNY   66  58  75 NE7       30.05R
6HR MIN TEMP:  58; 6HR MAX TEMP:  66; 6HR PCP: TRACE;

BURLINGTON     MOSUNNY   63  56  78 CALM      30.02S
6HR MIN TEMP:  58; 6HR MAX TEMP:  63;

KENOSHA        PTSUNNY   66  56  70 NE5       30.02R
6HR MIN TEMP:  59; 6HR MAX TEMP:  66;

FOND DU LAC    LGT RAIN  64  58  80 E7        30.03R
6HR MIN TEMP:  59; 6HR MAX TEMP:  66; 6HR PCP:  0.05;

SHEBOYGAN      CLOUDY    55  50  83 NE12      30.05S
6HR MIN TEMP:  55; 6HR MAX TEMP:  60;

WEST BEND      CLOUDY    63  59  88 E7        30.02F
JUNEAU         MOSUNNY   62  58  88 SE7       30.02S
6HR MIN TEMP:  60; 6HR MAX TEMP:  64; 6HR PCP:  0.02;

$$

LSZ147-162-311300-
LAKE SUPERIOR

STATION/POSITION TIME  TEMP    WIND        PRES    WAVE
                       AIR SEA DIR/SP/G            HT/PER
                 (UTC) (F)     (DEG/KT/KT) (MB)    (FT/S)
W MID LAKE BUOY  1150   42 38   90/ 17/ 19 1019.0R   3/ 4
DEVILS ISLAND    1200   43      70/ 25/ 28 1017.4F
SAXON HARBOR     1100   54      50/  5/  7 1015.6F
$$

LMZ867-665-643>646-311300-
LAKE MICHIGAN

STATION/POSITION TIME  TEMP    WIND        PRES    WAVE
                       AIR SEA DIR/SP/G            HT/PER
                 (UTC) (F)     (DEG/KT/KT) (MB)    (FT/S)
CHAMBERS ISLAND  1100   52      10/ 11/ 16 1019.3
N MID LAKE BUOY  1150   48 47   40/ 10/ 12 1019.4R   1/ 3
NORTHPORT PIER   1100   51      50/  8/ 10 1019.3R
KEWAUNEE LAKESHO 1100   50      20/ 12/ 18 1017.4R
SHEBOYGAN LAKESH 1200   50     360/ 16/ 17 1018.0S
PORT WASHINGTON  1130   53      30/  9/ 14 1017.6R
S MID LC1F1C2F2C3F3C4F4C5F5C6F6C7F7C8M1C9M2Ca!



USA.gov is the U.S. government's official web portal to all federal, state and local government web resources and services.